#timestamp,LO_Frequency,Hit 
1501412415.8,286046985.6,N
1501412435.6,286046987.2,N
1501412455.5,286046987.5,N
1501412475.3,286046986.9,N
1501412495.1,286046988.2,N
1501412515.9,286046988.1,N
1501412535.7,286046985.4,N
1501412555.5,286046988.2,N
1501412575.3,286046985.8,N
1501412595.2,286046985.7,N
1501412615.0,286046986.2,N
1501412615.9,286046986.2,N
1501412635.7,286046985.9,N
1501412655.6,286046988.0,N
1501412675.4,286046986.3,N
1501412695.2,286046983.8,N
1501412715.1,286046986.0,N
1501412716.0,286046986.0,N
1501412735.8,286046988.3,N
1501412755.6,286046986.0,N
1501412775.5,286046988.2,N
1501412795.3,286046986.1,N
1501412815.1,286046985.6,N
1501412835.8,286046985.9,N
1501412855.7,286046985.9,N
1501412875.5,286046987.9,N
1501412895.3,286046987.9,N
1501412915.2,286046986.0,N
1501412935.9,286046986.5,N
1501412955.7,286046986.2,N
1501412975.6,286046983.7,N
1501412995.4,286046984.1,N
1501413015.2,286046984.2,N
1501413035.1,286046986.1,N
1501413036.0,286046986.1,N
1501413055.8,286046985.5,N
1501413075.6,286046983.7,N
1501413095.4,286046986.4,N
1501413115.3,286046985.9,N
1501413135.1,286046985.4,N
1501413155.8,286046985.3,N
1501413175.7,286046986.6,N
1501413195.5,286046988.4,N
1501413215.3,286046985.5,N
1501413235.2,286046986.1,N
1501413255.9,286046986.5,N
1501413275.7,286046986.4,N
1501413295.6,286046986.4,N
1501413315.4,286046986.3,N
1501413335.2,286046983.7,N
1501413355.1,286046984.5,N
1501413356.0,286046984.5,N
1501413375.8,286046984.4,N
1501413395.6,286046984.0,N
1501413415.4,286046986.6,N
1501413435.3,286046986.8,N
1501413455.1,286046984.7,N
1501413475.8,286046985.1,N
1501413495.7,286046984.3,N
1501413515.5,286046984.0,N
1501413535.3,286046984.2,N
1501413555.2,286046983.9,N
1501413575.9,286046985.2,N
1501413595.7,286046983.7,N
1501413615.6,286046984.0,N
1501413635.4,286046986.8,N
1501413655.2,286046985.2,N
1501413675.0,286046984.6,N
1501413675.9,286046984.6,N
1501413695.8,286046986.4,N
1501413715.6,286046984.2,N
1501413735.4,286046986.2,N
1501413755.3,286046986.1,N
1501413775.1,286046984.0,N
1501413795.8,286046984.1,N
1501413815.7,286046984.5,N
1501413835.5,286046983.9,N
1501413855.3,286046986.7,N
1501413875.2,286046984.8,N
1501413895.9,286046982.9,N
1501413915.7,286046982.2,N
1501413935.5,286046985.1,N
1501413955.8,286046982.7,N
1501413975.7,286046983.0,N
1501413995.5,286046983.0,N
1501414015.3,286046982.8,N
1501414035.2,286046982.3,N
1501414055.9,286046984.6,N
1501414075.7,286046980.6,N
1501414095.6,286046984.7,N
1501414115.4,286046982.1,N
1501414135.2,286046985.2,N
1501414155.1,286046982.1,N
1501414156.0,286046982.1,N
1501414175.8,286046985.1,N
1501414195.6,286046980.5,N
1501414215.4,286046982.5,N
1501414235.3,286046980.6,N
1501414255.1,286046983.4,N
1501414275.8,286046980.6,N
1501414295.7,286046979.1,N
1501414315.5,286046980.5,N
1501414335.3,286046980.5,N
1501414355.2,286046981.1,N
1501414375.9,286046980.6,N
1501414395.7,286046980.6,N
1501414415.6,286046981.2,N
1501414435.4,286046981.3,N
1501414455.2,286046982.3,N
1501414475.0,286046982.1,N
1501414475.9,286046982.1,N
1501414495.8,286046982.5,N
1501414515.6,286046982.3,N
1501414535.4,286046984.8,N
1501414555.3,286046982.1,N
1501414575.1,286046982.9,N
1501414595.8,286046982.6,N
1501414615.7,286046982.6,N
1501414635.5,286046982.4,N
1501414655.3,286046985.2,N
1501414675.2,286046984.9,N
1501414695.9,286046983.3,N
1501414715.7,286046982.8,N
1501414735.5,286046982.6,N
1501414755.4,286046984.5,N
1501414775.2,286046984.7,N
1501414795.0,286046984.3,N
1501414795.9,286046984.3,N
1501414815.8,286046983.3,N
1501414835.6,286046983.1,N
1501414855.4,286046983.2,N
1501414875.3,286046983.4,N
1501414895.1,286046980.7,N
1501414896.0,286046980.7,N
1501414915.8,286046983.2,N
1501414935.7,286046981.9,N
1501414955.5,286046981.4,N
1501414975.3,286046981.4,N
1501414995.2,286046980.7,N
1501415015.9,286046980.5,N
1501415035.7,286046978.9,N
1501415055.5,286046981.3,N
1501415075.4,286046981.6,N
1501415095.2,286046981.9,N
1501415115.0,286046979.1,N
1501415115.9,286046979.1,N
1501415135.8,286046980.4,N
1501415155.6,286046979.6,N
1501415175.4,286046980.1,N
1501415195.3,286046980.1,N
1501415215.1,286046979.5,N
1501415216.0,286046979.5,N
1501415235.8,286046980.4,N
1501415255.7,286046981.6,N
1501415275.5,286046980.2,N
1501415295.3,286046979.1,N
1501415315.2,286046981.1,N
1501415335.9,286046981.7,N
1501415355.7,286046981.9,N
1501415375.5,286046978.9,N
1501415395.4,286046979.4,N
1501415415.2,286046980.2,N
1501415435.0,286046980.2,N
1501415435.9,286046980.2,N
1501415455.8,286046979.1,N
1501415475.6,286046978.9,N
1501415495.4,286046979.7,N
1501415515.3,286046979.3,N
1501415535.1,286046979.1,N
1501415536.0,286046979.1,N
1501415555.8,286046977.9,N
1501415575.7,286046979.8,N
1501415595.5,286046980.1,N
1501415615.3,286046980.2,N
1501415635.2,286046982.0,N
1501415655.9,286046977.4,N
1501415675.7,286046980.4,N
1501415695.5,286046980.1,N
1501415715.4,286046977.4,N
1501415735.2,286046978.9,N
1501415755.0,286046979.0,N
1501415755.9,286046979.0,N
1501415775.8,286046979.6,N
1501415795.6,286046979.4,N
1501415815.4,286046980.3,N
1501415835.3,286046977.4,N
1501415855.1,286046980.1,N
1501415856.0,286046980.1,N
1501415875.8,286046977.7,N
1501415895.7,286046979.9,N
1501415915.5,286046979.6,N
1501415935.3,286046977.3,N
1501415955.2,286046978.2,N
1501415975.9,286046979.8,N
1501415995.7,286046979.7,N
